Tracking 22879 objects as of 21-Apr-2021
HD Live streaming from Space Station
objects crossing your sky now

STARLINK-2095

Track STARLINK-2095 now!
10-day predictions
STARLINK-2095 is classified as:


NORAD ID: 47679
Int'l Code: 2021-012BM
Perigee: 553.6 km
Apogee: 555.4 km
Inclination: 53.1 °
Period: 95.6 minutes
Semi major axis: 6925 km
RCS: Unknown
Launch date: February 16, 2021
Source: United States (US)
Launch site: AIR FORCE EASTERN TEST RANGE (AFETR)
aabbcc
Your satellite tracking list
Your tracking list is empty




NASA's NSSDC Master Catalog

Two Line Element Set (TLE):
1 47679U 21012BM  21110.58335648  .00047120  00000-0  31644-2 0  9990
2 47679  53.0599 160.7376 0001306  66.5086  82.2228 15.06362037  1757
Source of the keplerian elements: AFSPC